Miscellaneous Local Product
Issued by NWS Hastings, NE

Home | Current Version | Previous Version | Text Only | Print | Product List | Glossary Off
Versions: 1 2 3 4 5 6 7 8 9 10 11 12 13 14 15 16 17 18 19 20 21 22 23 24 25 26 27 28 29 30 31 32 33 34 35 36 37 38 39 40 41 42 43 44 45 46 47 48 49 50

544
AXUS43 KGID 290702
MISGRI

GID CWA HOURLY WEATHER ROUNDUP
NATIONAL WEATHER SERVICE HASTINGS NE
200 AM CDT SUN MAY 29 2016

NOTE: "FAIR" INDICATES FEW OR NO CLOUDS BELOW 12,000 FEET WITH NO
SIGNIFICANT WEATHER AND/OR OBSTRUCTIONS TO VISIBILITY.

...SOUTH CENTRAL NEBRASKA...

CITY           SKY/WX    TMP DP  RH WIND       PRES   REMARKS
GRAND ISLAND   LGT RAIN  62  58  86 SE5       30.01F
HASTINGS       MOCLDY    60  54  80 CALM      30.03F
KEARNEY        CLOUDY    61  50  67 CALM      30.04F
ORD            PTCLDY    57  55  93 CALM      30.00F
YORK           MOCLDY    59  57  94 CALM      30.02F
AURORA         CLOUDY    60  58  94 W7        30.03R
LEXINGTON      CLOUDY    55  51  87 S5        30.03F
HOLDREGE       CLOUDY    59  51  74 NW3       30.06F
HEBRON         CLEAR     58  57  97 CALM      30.01F

...NEBRASKA PANHANDLE...

CITY           SKY/WX    TMP DP  RH WIND       PRES   REMARKS
CHADRON        CLEAR     42  40  92 CALM      30.07S
ALLIANCE       CLEAR     42  41  96 SW7       30.08S
SCOTTSBLUFF    CLEAR     49  44  83 E6        30.09S
SIDNEY         CLEAR     46  44  93 NE7       30.11S

...WESTERN AND NORTH CENTRAL NEBRASKA...

CITY           SKY/WX    TMP DP  RH WIND       PRES   REMARKS
VALENTINE      PTCLDY    56  50  80 W6        30.04R
AINSWORTH      LGT RAIN  58  55  88 S7        30.03R
ONEILL         CLOUDY    60  58  93 SW8       30.02S
BROKEN BOW     MOCLDY    58  53  84 N3        30.00F
IMPERIAL       CLEAR     56  50  80 E6        30.07R
NORTH PLATTE   CLOUDY    52  50  93 W6        30.06R
MCCOOK         LGT RAIN  58  51  78 N8        30.08R

...EASTERN NEBRASKA...

CITY           SKY/WX    TMP DP  RH WIND       PRES   REMARKS
NORFOLK        CLEAR     53  52  96 SW3       29.99F
SO SIOUX CITY  CLEAR     57  55  93 W5        29.97S
TEKAMAH        CLEAR     57  53  86 W7        29.98S
COLUMBUS       PTCLDY    55  46  71 CALM      30.02S
ALBION         CLOUDY    55  52  92 CALM      30.01F
OMAHA EPPLEY   CLEAR     59  54  83 NW5       29.99S
OFFUTT AFB     CLEAR     56  55  95 W3        29.99R
MILLARD        CLEAR     58  56  92 CALM      30.00R
LINCOLN        CLEAR     60  56  86 CALM      30.01S
NEBRASKA CITY  CLEAR     62  57  82 NW3       30.01R
BEATRICE       CLEAR     60  57  91 CALM      30.01S
FALLS CITY     CLEAR     64  59  83 W6        29.99F

...NORTHERN KANSAS...

CITY           SKY/WX    TMP DP  RH WIND       PRES   REMARKS
GOODLAND       MOCLDY    57  48  72 W9        30.10R
HILL CITY      CLEAR     55  53  93 W3        30.04S
NORTON         PTSUNNY   61  48  63 N9        30.05R
PHILLIPSBURG   PTCLDY    63  54  72 NW9       30.06R
SMITH CENTER   PTCLDY    57  54  88 CALM      30.05R
BELOIT         CLEAR     61  55  82 CALM      30.01S
HAYS           CLEAR     55  48  76 CALM      30.04S
RUSSELL        CLEAR     59  55  87 S10       30.02S
CONCORDIA      CLEAR     63  54  72 S10       30.02S
SALINA         CLEAR     61  58  90 CALM      30.03S
TOPEKA         CLEAR     61  59  93 CALM      30.02S



USA.gov is the U.S. government's official web portal to all federal, state and local government web resources and services.